Showing default

AISAT, 40054

Orbit data source: Space-Track

AISAT, 40054 is a payload satellite owned by DLR (DE) in SSO that was launched on Mon, 30 Jun 2014 UTC via a PSLV launch vehicle from the Sirharikota (SRI). Payload-class satellites include a variety of spacecraft equipped with specific instruments for various scientific and technological missions. These include communications satellites like Starlink; space stations such as the ISS; scientific satellites like the Hubble; Earth observation satellites from companies like Planet Labs, Umbra, and HawkEye 360; GPS; miniature CubeSats for education and research; and military/defense satellites.

Loading next visibility...
Identifier
40054, 2014-034B
Orbit
SSO
Country
Flag of DEDE / GER
Related business
Manufacturer
DLR-ISS
Mission
Non-operational Civil Communications
Bus & Motor
CLAVIS, Unknown motor
Mass
10 kg wet, 10 kg dry
Launch date (UTC)
2014-06-30 (11 years ago)
Launch vehicle
PSLV
Launch site
Sirharikota (SRI)
Object type
Payload
Rocket body
Debris
Shape & HBR
Box + 1 Truss, 2.0 m
Radar Cross Section
0.040 m², Medium (>0.1 m² and < 1m²)

Expand to show TLE details & history
Last TLE update: 12 hours ago

TLE from 12 hours ago
0 AISAT
1 40054U 14034B   25310.01529836  .00013776  00000-0  10276-2 0  9992
2 40054  98.2520 201.9260 0007948 249.8479 110.1889 15.02971308613613
Epoch: 2025-11-06T00:22Z
TLE epoch observation values (Epoch: 2025-11-06T00:22:01.778Z)
Latitude
-0.00008°
Longitude
150.93892°
Altitude
562.689 km
Speed
7.579 km/s
True Right ascension
13h 27m 42s
True Declination
0° 00' 00"
Sunlit
Object was in daylight at epoch
Visualization orbit readout
Latitude
Unknown
Longitude
Unknown
Altitude
Unknown
Speed
Unknown
Apparent Right ascension
Unknown
Apparent Declination
Unknown
Sunlit
N/A
Visualization observer readout
Local Sidereal Time
08:01:26
Azimuth
Unknown
Elevation
Unknown
Doppler factor
Unknown
Orbital elements
Apogee altitude
560.277 km
Perigee altitude
549.256 km
Semi-major axis
6,932.903 km
Eccentricity
0.00079
Inclination
98.252°
RAAN
201.926°
Arg. of periapsis
249.8479°
True anomaly
110.27435°
Mean anomaly
110.1889°
Eccentric anomaly
110.23163°
Mean motion
3.75985 °/min
Orbital period
95.75 mins
BSTAR
0.0010276
Loading maneuver chart data...
Computing Atmospheric mass density...
Loading historical data...
Loading historical data...
Loading historical data...
Loading historical data...
Loading historical data...
Loading historical data...
Loading historical data...
Other satellites on launch #34 in the year 2014 (2014-06-30 UTC)

Documentation

Showing up to 5 results
|